Location: *
(60.1759°S, 155.0663°W)
Time: 09:07:08
(UTC+00:00)

Cosmos 1782 - Pass Details

Date: 17 September 2019
Orbit: 539 x 551 km, 82.5° (Epoch: 18 October)

Event Time Altitude Azimuth Distance (km) Brightness Sun altitude
Rises 12:16:52 0° 195° (SSW) 2,777 7.0 -27.5°
Reaches altitude 10° 12:19:04 10° 194° (SSW) 1,874 6.0 -27.4°
Enters shadow 12:21:35 36° 191° (S) 908 4.2 -27.2°
